Hourly Data Report for July 16, 2021

LONDON CS
ONTARIO
Current Station Operator: ECCC - MSC

43°02'00.000" N
81°09'00.000" W
278.00 m
6144478
71622
WSN

Download Data

Hourly Data (July 2021)
Hourly Data Report for July 16, 2021
TIME
LST
Temp Definition
°C
Dew Point Definition
°C
Rel Hum Definition
%
Precip. Amount Definition
mm

Wind Dir Definition
10's deg

Wind Spd Definition
km/h
Visibility Definition
km
Stn Press Definition
kPa
Hmdx Definition


Wind Chill Definition


Weather Definition


00:00 19.9 17.7 87 0.0       98.32     LegendNANA
01:00 19.3 17.4 88 0.0       98.33     LegendNANA
02:00 19.1 17.1 88 0.0       98.35     LegendNANA
03:00 18.7 16.8 89 0.0       98.36     LegendNANA
04:00 17.9 16.6 92 0.0       98.38     LegendNANA
05:00 17.6 16.9 96 0.0       98.43     LegendNANA
06:00 17.6 16.8 96 0.0       98.50     LegendNANA
07:00 18.5 16.7 89 0.0       98.54     LegendNANA
08:00 18.6 17.1 91 0.0       98.58     LegendNANA
09:00 20.4 17.4 83 0.0       98.58 26   LegendNANA
10:00 20.6 17.4 82 0.0       98.58 26   LegendNANA
11:00 21.1 17.6 81 0.0       98.60 27   LegendNANA
12:00 21.3 17.3 78 0.0       98.63 27   LegendNANA
13:00 20.3 17.9 86 0.0       98.59 26   LegendNANA
14:00 20.8 18.3 86 0.0       98.51 27   LegendNANA
15:00 21.1 17.9 82 0.0       98.48 27   LegendNANA
16:00 20.9 18.0 84 0.0       98.46 27   LegendNANA
17:00 20.6 18.7 89 0.3       98.49 27   LegendNANA
18:00 20.0 18.4 91 0.4       98.43 26   LegendNANA
19:00 19.6 17.8 90 0.0       98.44     LegendNANA
20:00 18.9 17.2 90 0.0       98.42     LegendNANA
21:00 18.6 16.6 89 0.0       98.51     LegendNANA
22:00 18.2 15.8 86 0.0       98.48     LegendNANA
23:00 18.1 15.1 83 0.0       98.44     LegendNANA

Notes on Data Quality.

Legend

  • E = Estimated
  • M = Missing
  • NA = Not Available*
  • [empty] = Indicates an unobserved value
Date modified: